This demonstration page uses our WeatherBlox Daily Observations layout. Learn more.

Left ArrowRight Arrow

38.20091, -84.87328

Hourly Observations for April 26, 2022

Temp ( °F °C ) Dew Point ( °F °C ) Humidity (%) Winds ( mph kmh ) Pressure ( in mb ) Visibility ( mi km ) Precip ( " mm )
12:53 am 00:53 Cloudy 57 14 N/A N/A Calm 30.13 1020 10 16 0.00 0.00
1:32 am 01:32 Cloudy 57 14 N/A N/A NNW 5 7 30.16 1021 10 16 0.01 0.25
1:53 am 01:53 Cloudy 57 14 N/A N/A N 5 7 30.15 1021 10 16 0.01 0.25
2:03 am 02:03 Cloudy 55 13 N/A N/A N 7 11 30.17 1022 10 16 0.00 0.00
2:53 am 02:53 Cloudy 54 12 N/A N/A NNW 8 13 30.16 1021 10 16 0.00 0.00
3:53 am 03:53 Mostly Cloudy 52 11 N/A N/A NW 10 17 30.17 1022 10 16 0.00 0.00
4:53 am 04:53 Mostly Cloudy 50 10 N/A N/A NW 7 11 30.20 1023 10 16 0.00 0.00
5:53 am 05:53 Cloudy 48 9 N/A N/A NNW 9 15 30.22 1023 10 16 0.00 0.00
6:41 am 06:41 Partly Cloudy 46 7.8 37 2.8 71 71 NNW 8 13 30.26 1025 10 16 0.00 0.00
6:53 am 06:53 Sunny 46 7.8 37 2.8 71 71 NNW 6 9 30.24 1024 10 16 0.00 0.00
7:53 am 07:53 Sunny 46 7.8 37 2.8 71 71 NW 6 9 30.26 1025 10 16 0.00 0.00
8:53 am 08:53 Sunny 46 7.8 33 0.6 61 61 NW 8 13 30.26 1025 10 16 0.00 0.00
9:53 am 09:53 Sunny 46 7.8 31 -0.6 56 56 WNW 6 9 30.27 1025 10 16 0.00 0.00
10:53 am 10:53 Sunny 48 8.9 32 0 54 54 W 8 13 30.29 1026 10 16 0.00 0.00
11:53 am 11:53 Mostly Cloudy 50 10 35 1.7 57 57 undefined N/A 30.28 1025 10 16 0.00 0.00
12:53 pm 12:53 Mostly Sunny 53 11.7 36 2.2 52 52 NW 12 19 30.27 1025 10 16 0.00 0.00
1:53 pm 13:53 Sunny 54 12.2 35 1.7 49 49 NW 13 20 30.26 1025 10 16 0.00 0.00
2:53 pm 14:53 Sunny 55 12.8 34 1.1 45 45 WNW 8 13 30.26 1025 10 16 0.00 0.00
3:53 pm 15:53 Sunny 58 14.4 33 0.6 39 39 W 15 24 30.25 1025 10 16 0.00 0.00
4:53 pm 16:53 Sunny 58 14.4 30 -1.1 35 35 NW 7 11 30.24 1024 10 16 0.00 0.00
5:53 pm 17:53 Sunny 59 15 30 -1.1 33 33 WNW 6 9 30.22 1024 10 16 0.00 0.00
6:53 pm 18:53 Sunny 59 15 29 -1.7 32 32 WNW 12 19 30.24 1024 10 16 0.00 0.00
7:53 pm 19:53 Sunny 57 13.9 30 -1.1 36 36 W 7 11 30.24 1024 10 16 0.00 0.00
8:53 pm 20:53 Clear 54 12.2 30 -1.1 40 40 W 6 9 30.26 1025 10 16 0.00 0.00
9:53 pm 21:53 Clear 52 11.1 31 -0.6 45 45 W 5 7 30.28 1026 10 16 0.00 0.00
10:53 pm 22:53 Clear 50 10 31 -0.6 48 48 W 5 7 30.29 1026 10 16 0.00 0.00
11:53 pm 23:53 Clear 47 8.3 32 0 56 56 WNW 5 7 30.29 1026 10 16 0.00 0.00

Powered by AerisWeather